CWHN

Jimmy Lake Airport

Jimmy Lake, Canada
Issued Wind Visibility Ceiling Temperature Dew Point Humidity Barometer
Sep-23
01:00 UTC
9 miles Overcast
2,400' AGL
C
43° F
C
37° F
81% 30.09" Hg
1021.4 hPa
MVFR
Sep-23
00:00 UTC
9 miles Overcast
2,200' AGL
C
43° F
C
36° F
76% 30.09" Hg
1021.4 hPa
MVFR
Sep-22
23:00 UTC
110°
5 KTS
9 miles Broken
2,400' AGL
C
45° F
C
37° F
76% 30.08" Hg
1021 hPa
MVFR
Sep-22
22:00 UTC
030°
4 KTS
9 miles Overcast
1,700' AGL
C
43° F
C
36° F
76% 30.09" Hg
1021.4 hPa
MVFR
Sep-22
21:00 UTC
330°
4 KTS
9 miles Overcast
1,700' AGL
C
43° F
C
36° F
76% 30.11" Hg
1022.2 hPa
MVFR
Sep-22
20:00 UTC
9 miles Overcast
1,900' AGL
C
43° F
C
34° F
71% 30.11" Hg
1022.1 hPa
MVFR
Sep-22
19:00 UTC
320°
3 KTS
9 miles Overcast
1,700' AGL
C
43° F
C
37° F
81% 30.11" Hg
1022 hPa
MVFR
Sep-22
18:00 UTC
340°
4 KTS
9 miles Overcast
1,500' AGL
C
41° F
C
36° F
81% 30.12" Hg
1022.6 hPa
MVFR
Sep-22
17:00 UTC
330°
4 KTS
9 miles Overcast
1,500' AGL
C
41° F
C
36° F
81% 30.12" Hg
1022.4 hPa
MVFR
Sep-22
16:42 UTC
360°
4 KTS
9 miles Broken
1,500' AGL
C
41° F
C
36° F
81% 30.11" Hg
1020 hPa
MVFR
Sep-22
16:00 UTC
340°
6 KTS
9 miles   C
41° F
C
37° F
87% 30.12" Hg
1022.4 hPa
VFR
Sep-22
15:00 UTC
320°
5 KTS
9 miles   C
39° F
C
37° F
93% 30.11" Hg
1022.3 hPa
VFR
Sep-22
14:00 UTC
340°
2 KTS
9 miles Overcast
3,200' AGL
C
37° F
C
37° F
100% 30.12" Hg
1022.6 hPa
VFR
Sep-22
13:06 UTC
040°
4 KTS
7 miles Overcast
900' AGL
C
37° F
C
36° F
93% 30.12" Hg
1020 hPa
IFR
Sep-22
12:02 UTC
3 miles Overcast
1,000' AGL
C
39° F
C
37° F
93% 30.11" Hg
1020 hPa
MVFR
Sep-22
11:00 UTC
350°
4 KTS
9 miles Overcast
1,600' AGL
C
39° F
C
37° F
93% 30.07" Hg
1020.8 hPa
MVFR
Sep-22
10:00 UTC
340°
5 KTS
9 miles Overcast
1,000' AGL
C
39° F
C
37° F
93% 30.05" Hg
1020.2 hPa
MVFR
Sep-22
09:00 UTC
350°
4 KTS
9 miles Overcast
1,000' AGL
C
39° F
C
37° F
93% 30.05" Hg
1020.2 hPa
MVFR
Sep-22
08:00 UTC
340°
4 KTS
9 miles Overcast
600' AGL
C
39° F
C
39° F
100% 30.05" Hg
1020 hPa
IFR
Sep-22
07:00 UTC
340°
5 KTS
9 miles Overcast
1,100' AGL
C
39° F
C
37° F
93% 30.03" Hg
1019.5 hPa
MVFR
Sep-22
06:00 UTC
350°
5 KTS
9 miles Broken
900' AGL
C
39° F
C
39° F
100% 30.02" Hg
1019.1 hPa
IFR
Sep-22
05:33 UTC
330°
6 KTS
9 miles Overcast
700' AGL
C
39° F
C
39° F
100% 30.01" Hg
1016 hPa
IFR
Sep-22
05:00 UTC
350°
5 KTS
9 miles Broken
1,500' AGL
C
39° F
C
39° F
100% 30" Hg
1018.6 hPa
MVFR
Sep-22
04:58 UTC
340°
6 KTS
9 miles Broken
1,500' AGL
C
39° F
C
39° F
100% 30" Hg
1016 hPa
MVFR
Sep-22
04:01 UTC
350°
4 KTS
9 miles Broken
2,300' AGL
C
39° F
C
39° F
100% 29.99" Hg
1016 hPa
MVFR
Sep-22
03:01 UTC
340°
5 KTS
9 miles Broken
2,400' AGL
C
41° F
C
39° F
93% 29.97" Hg
1015 hPa
MVFR
Sep-22
02:48 UTC
360°
5 KTS
3 miles Broken
200' AGL
C
39° F
C
39° F
100% 29.96" Hg
1015 hPa
LIFR